"2009-09-04 00:00:00",1209889,0.916,1.535,15.06,0.421,19.81,109.6975,24.12,24.99,19.01,0,111.1,13.17,24.95,323.5
"2009-09-04 00:00:30",1209890,1.329,12.62,9.12,0.423,19.62,109.7047,24.14,25.02,18.93,0,111.1,13.17,24.97,334.6
"2009-09-04 00:01:00",1209891,1.315,6.578,9.67,0.326,19.63,109.7172,24.17,25.06,18.84,0,111.1,13.17,25.00,328.6
"2009-09-04 00:01:30",1209892,1.201,6.548,13.58,0.433,19.6,109.7184,24.17,25.09,19.18,0,111.1,13.17,25.01,328.5
"2009-09-04 00:02:00",1209893,2.424,10.35,4.654,0.659,19.45,109.743,24.23,25.13,18.85,0,111.1,13.17,25.07,332.4
"2009-09-04 00:02:30",1209894,2.283,19.62,8.63,0.499,19.63,109.749,24.25,25.16,18.36,0,111.1,13.17,25.09,341.6
"2009-09-04 00:03:00",1209895,2.123,22.56,8.38,0.364,19.61,109.7647,24.29,25.19,18.02,0,111.1,13.17,25.13,344.6
"2009-09-04 00:03:30",1209896,2.069,8.08,11.23,0.843,19.57,109.7784,24.33,25.23,18.09,0,111.1,13.17,25.16,330.1
"2009-09-04 00:04:00",1209897,2.265,24.58,7.902,0.463,19.58,109.7846,24.34,25.25,17.87,0,111.1,13.17,25.18,346.6
"2009-09-04 00:04:30",1209898,1.814,13.47,4.794,0.409,19.59,109.8109,24.41,25.29,17.83,0,111.1,13.17,25.25,335.5
"2009-09-04 00:05:00",1209899,1.784,15.63,3.937,0.335,19.6,109.8137,24.42,25.32,17.72,0,111.1,13.16,25.25,337.6
"2009-09-04 00:05:30",1209900,2.4,17.51,2.357,0.281,19.6,109.8351,24.47,25.37,17.57,0,111.1,13.16,25.31,339.5
"2009-09-04 00:06:00",1209901,2.148,6.509,4.825,0.336,19.72,109.8449,24.5,25.4,17.32,0,111.1,13.16,25.33,328.5
"2009-09-04 00:06:30",1209902,1.997,9.68,6.55,0.438,19.74,109.8494,24.51,25.44,17.14,0,111.1,13.16,25.35,331.7
"2009-09-04 00:07:00",1209903,1.996,13.51,8.44,0.909,19.82,109.8752,24.57,25.47,17.1,0,111.1,13.16,25.41,335.5
"2009-09-04 00:07:30",1209904,2.331,16.04,7.415,0.683,19.85,109.8786,24.58,25.47,17.09,0,111.1,13.16,25.42,338.0
"2009-09-04 00:08:00",1209905,2.276,16.56,4.873,0.668,19.83,109.8924,24.62,25.52,17.07,0,111.1,13.16,25.46,338.6
"2009-09-04 00:08:30",1209906,1.979,9.3,10.13,0.882,19.78,109.9115,24.67,25.56,17.43,0,111.1,13.16,25.51,331.3
"2009-09-04 00:09:00",1209907,2.106,13.03,5.557,0.42,19.69,109.9123,24.67,25.56,18.28,0,111.1,13.16,25.51,335.0
"2009-09-04 00:09:30",1209908,2.009,8.15,5.146,0.484,19.66,109.9241,24.7,25.61,18.42,0,111.1,13.16,25.54,330.1
"2009-09-04 00:10:00",1209909,1.945,9.88,9.13,0.671,19.63,109.9444,24.75,25.66,18.48,0,111.1,13.16,25.59,331.9
"2009-09-04 00:10:30",1209910,1.606,8.99,9.97,0.762,19.66,109.946,24.76,25.68,18.62,0,111.1,13.16,25.59,331.0
"2009-09-04 00:11:00",1209911,3.321,20.08,2.69,0.435,19.53,109.952,24.77,25.69,18.36,0,111.1,13.16,25.61,342.1
"2009-09-04 00:11:30",1209912,2.62,15.07,6.217,0.39,19.61,109.9685,24.81,25.71,18.02,0,111.1,13.15,25.65,337.1
"2009-09-04 00:12:00",1209913,2.715,9.55,5.272,0.953,19.63,109.9798,24.84,25.74,18,0,111.1,13.15,25.68,331.5
"2009-09-04 00:12:30",1209914,3.121,7.293,4.236,0.536,19.73,109.9798,24.84,25.76,17.83,0,111.1,13.15,25.68,329.3
"2009-09-04 00:13:00",1209915,3.611,10.28,3.944,0.394,19.76,109.9815,24.85,25.78,17.33,0,111.1,13.15,25.69,332.3
"2009-09-04 00:13:30",1209916,3.435,11.46,5.505,0.127,19.83,109.9935,24.88,25.8,17.04,0,111.1,13.15,25.72,333.5
"2009-09-04 00:14:00",1209917,2.603,2.934,4.229,0.515,19.89,110.0073,24.91,25.81,16.88,0,111.1,13.15,25.75,324.9
"2009-09-04 00:14:30",1209918,2.258,0.033,3.75,0.311,19.91,110.0111,24.92,25.83,16.77,0,111.1,13.15,25.76,322.0
"2009-09-04 00:15:00",1209919,2.108,1.37,4.535,0.369,19.88,110.0126,24.93,25.83,16.7,0,111.1,13.15,25.77,323.4
"2009-09-04 00:15:30",1209920,1.514,352.4,8.73,0.426,19.87,110.0122,24.93,25.85,16.75,0,111.1,13.15,25.76,314.4
"2009-09-04 00:16:00",1209921,1.717,6.759,8.42,0.672,19.76,110.011,24.92,25.86,16.78,0,111.1,13.15,25.76,328.8
"2009-09-04 00:16:30",1209922,2.44,352.1,4.322,0.326,19.79,110.0104,24.92,25.87,16.71,0,111.1,13.15,25.76,314.1
"2009-09-04 00:17:00",1209923,2.881,355,12.25,0.324,19.73,110.0107,24.92,25.88,16.82,0,111.1,13.15,25.76,317.0
"2009-09-04 00:17:30",1209924,1.679,342.1,8.87,0.224,19.7,110.0085,24.92,25.87,16.84,0,111.1,13.15,25.76,304.1
"2009-09-04 00:18:00",1209925,1.421,4.623,8.21,0.336,19.8,110.0079,24.91,25.89,16.91,0,111.1,13.15,25.75,326.6
"2009-09-04 00:18:30",1209926,1.113,355.6,8.25,0.352,19.96,110.0048,24.91,25.89,16.85,0,111.1,13.15,25.75,317.6
"2009-09-04 00:19:00",1209927,1.709,350,8.48,0.595,19.7,110.0042,24.91,25.89,16.86,0,111.1,13.15,25.74,312.0
"2009-09-04 00:19:30",1209928,1.126,355.9,14.73,0.499,19.85,110.0042,24.91,25.88,16.87,0,111.1,13.15,25.74,317.9
"2009-09-04 00:20:00",1209929,1.519,348.9,10.12,0.515,19.71,110.0042,24.91,25.87,16.92,0,111.1,13.15,25.74,310.9
"2009-09-04 00:20:30",1209930,1.11,346.7,15.23,0.407,19.73,110.0042,24.91,25.88,16.91,0,111.1,13.15,25.74,308.7
"2009-09-04 00:21:00",1209931,1.453,336.1,8.59,0.229,19.55,110.0039,24.9,25.89,16.93,0,111.1,13.15,25.74,298.1
"2009-09-04 00:21:30",1209932,1.877,336.8,5.528,0.125,19.54,110.0033,24.9,25.86,16.93,0,111.1,13.15,25.74,298.8
"2009-09-04 00:22:00",1209933,1.995,334.7,3.704,0.113,19.6,110.0005,24.9,25.88,16.95,0,111.2,13.15,25.73,296.7
"2009-09-04 00:22:30",1209934,2.35,333.4,4.423,0.152,19.55,109.9968,24.89,25.88,16.94,0,111.2,13.15,25.73,295.4
"2009-09-04 00:23:00",1209935,2.448,328,3.268,0.15,19.53,109.9949,24.88,25.88,16.96,0,111.2,13.15,25.72,290.0
"2009-09-04 00:23:30",1209936,2.32,318.8,3.812,0.246,19.57,109.9881,24.86,25.87,16.96,0,111.2,13.15,25.70,280.8
"2009-09-04 00:24:00",1209937,3.077,324.7,3.927,0.418,19.57,109.9841,24.85,25.89,17.02,0,111.2,13.15,25.69,286.7
"2009-09-04 00:24:30",1209938,3.457,322.8,7.475,0.148,19.6,109.9813,24.85,25.87,17.1,0,111.2,13.15,25.69,284.8
"2009-09-04 00:25:00",1209939,3.547,313.9,3.489,0.463,19.66,109.9789,24.84,25.88,17.15,0,111.2,13.15,25.68,275.9
"2009-09-04 00:25:30",1209940,3.331,321.5,2.255,0.124,19.69,109.9757,24.83,25.88,17.16,0,111.2,13.15,25.67,283.5
"2009-09-04 00:26:00",1209941,3.449,323.4,3.07,0.306,19.7,109.966,24.81,25.87,17.18,0,111.2,13.15,25.65,285.4
"2009-09-04 00:26:30",1209942,3.268,323.3,3.544,0.183,19.69,109.9573,24.78,25.86,17.23,0,111.2,13.15,25.62,285.3
"2009-09-04 00:27:00",1209943,3.594,321.7,5.192,0.259,19.64,109.9452,24.75,25.85,17.34,0,111.2,13.15,25.59,283.7
"2009-09-04 00:27:30",1209944,3.375,319.5,3.472,0.177,19.77,109.9427,24.75,25.84,17.46,0,111.2,13.14,25.59,281.5
"2009-09-04 00:28:00",1209945,3.59,320.1,2.953,0.209,19.7,109.9421,24.75,25.82,17.52,0,111.2,13.14,25.58,282.1
"2009-09-04 00:28:30",1209946,2.969,328.6,2.679,0.123,19.72,109.9214,24.69,25.81,17.59,0,111.2,13.14,25.53,290.6
"2009-09-04 00:29:00",1209947,2.774,330.1,2.464,0.171,19.66,109.909,24.66,25.79,17.51,0,111.2,13.14,25.50,292.1
"2009-09-04 00:29:30",1209948,2.576,331.9,3.416,0.185,19.68,109.9079,24.66,25.78,17.63,0,111.2,13.14,25.50,293.9
"2009-09-04 00:30:00",1209949,3.165,323.9,4.693,0.246,19.6,109.891,24.61,25.74,17.87,0,111.2,13.14,25.45,285.9
"2009-09-04 00:30:30",1209950,4.453,321.9,2.027,0.262,19.6,109.8753,24.57,25.72,18.28,0,111.2,13.14,25.41,283.9
"2009-09-04 00:31:00",1209951,4.704,324.1,1.549,0.139,19.59,109.8702,24.56,25.69,18.51,0,111.2,13.14,25.40,286.1
"2009-09-04 00:31:30",1209952,4.196,323.5,1.112,0.202,19.65,109.8455,24.5,25.67,18.7,0,111.2,13.14,25.33,285.5
"2009-09-04 00:32:00",1209953,3.813,325.3,1.385,0.083,19.76,109.8402,24.48,25.63,18.72,0,111.2,13.14,25.32,287.3
"2009-09-04 00:32:30",1209954,3.668,325.2,1.487,0.139,19.75,109.8124,24.41,25.6,18.67,0,111.2,13.14,25.25,287.2
"2009-09-04 00:33:00",1209955,3.233,329.4,2.455,0.237,19.68,109.8079,24.4,25.57,18.85,0,111.2,13.15,25.24,291.4
"2009-09-04 00:33:30",1209956,3.28,325.3,2.39,0.209,19.68,109.8048,24.39,25.55,18.92,0,111.2,13.15,25.23,287.3
"2009-09-04 00:34:00",1209957,3.544,321.4,3.133,0.184,19.77,109.7823,24.34,25.52,18.95,0,111.2,13.15,25.17,283.4
"2009-09-04 00:34:30",1209958,3.437,319,6.572,0.163,19.84,109.7742,24.31,25.49,18.73,0,111.2,13.15,25.15,281.0
"2009-09-04 00:35:00",1209959,3.838,322.7,4.951,0.34,19.8,109.7714,24.31,25.46,18.74,0,111.2,13.15,25.14,284.7
"2009-09-04 00:35:30",1209960,4.271,329.1,2.723,0.314,19.81,109.7472,24.25,25.44,18.85,0,111.2,13.15,25.08,291.1
"2009-09-04 00:36:00",1209961,3.95,336.5,2.648,0.262,19.89,109.7405,24.23,25.41,18.82,0,111.2,13.15,25.06,298.5
"2009-09-04 00:36:30",1209962,3.699,328.8,1.297,0.119,19.89,109.7354,24.21,25.37,18.75,0,111.2,13.15,25.05,290.8
"2009-09-04 00:37:00",1209963,3.744,331.7,2.86,0.235,19.94,109.7099,24.15,25.35,18.73,0,111.2,13.15,24.99,293.7
"2009-09-04 00:37:30",1209964,4.097,331.4,2.164,0.199,19.98,109.7068,24.14,25.32,18.8,0,111.2,13.15,24.98,293.4
"2009-09-04 00:38:00",1209965,4.034,334.4,4.795,0.21,19.97,109.7042,24.13,25.29,18.8,0,111.2,13.15,24.97,296.4
"2009-09-04 00:38:30",1209966,3.777,331.9,2.479,0.179,20.04,109.6792,24.07,25.24,18.67,0,111.2,13.15,24.91,293.9
"2009-09-04 00:39:00",1209967,3.92,333.6,2.45,0.206,20.07,109.6731,24.05,25.22,18.63,0,111.2,13.15,24.89,295.6
"2009-09-04 00:39:30",1209968,3.727,329.9,4.983,0.119,20.03,109.6714,24.05,25.21,18.63,0,111.2,13.15,24.89,291.9
"2009-09-04 00:40:00",1209969,3.466,325.6,1.782,0.129,20.05,109.6506,24,25.18,18.69,0,111.2,13.15,24.83,287.6
"2009-09-04 00:40:30",1209970,3.503,329.8,2.715,0.226,19.98,109.6405,23.97,25.15,18.77,0,111.2,13.15,24.81,291.8
"2009-09-04 00:41:00",1209971,3.396,326.9,1.569,0.16,19.96,109.6394,23.97,25.12,18.88,0,111.2,13.15,24.80,288.9
"2009-09-04 00:41:30",1209972,3.777,331.3,3.329,0.169,19.96,109.6332,23.95,25.08,19.02,0,111.2,13.15,24.79,293.3
"2009-09-04 00:42:00",1209973,4.007,330.4,4.281,0.156,19.99,109.6124,23.9,25.09,19.07,0,111.1,13.15,24.73,292.4
"2009-09-04 00:42:30",1209974,3.731,324.9,1.614,0.149,19.97,109.6057,23.88,25.05,18.95,0,111.2,13.15,24.72,286.9
"2009-09-04 00:43:00",1209975,3.756,323.7,2.312,0.103,19.94,109.6057,23.88,25.02,18.93,0,111.2,13.15,24.72,285.7
"2009-09-04 00:43:30",1209976,3.685,328.3,1.011,0.106,19.93,109.6023,23.87,25.01,19.2,0,111.1,13.15,24.71,290.3
"2009-09-04 00:44:00",1209977,3.593,325.1,1.794,0.175,19.98,109.5899,23.84,24.99,19.33,0,111.1,13.15,24.68,287.1
"2009-09-04 00:44:30",1209978,3.542,330.2,2.627,0.151,19.98,109.5731,23.8,24.97,19.37,0,111.1,13.15,24.63,292.2
"2009-09-04 00:45:00",1209979,3.656,326.3,2.988,0.155,19.98,109.572,23.79,24.94,19.37,0,111.1,13.15,24.63,288.3
"2009-09-04 00:45:30",1209980,3.346,328.3,3.926,0.292,19.99,109.5717,23.79,24.93,19.38,0,111.1,13.14,24.63,290.3
"2009-09-04 00:46:00",1209981,3.312,326.5,4.428,0.223,19.97,109.5548,23.75,24.9,19.47,0,111.1,13.14,24.59,288.5
"2009-09-04 00:46:30",1209982,3.097,330.3,2.257,0.126,20.02,109.5422,23.72,24.88,19.52,0,111.1,13.14,24.55,292.3
"2009-09-04 00:47:00",1209983,3.579,321.6,2.631,0.237,19.99,109.5382,23.71,24.86,19.47,0,111.1,13.14,24.54,283.6
"2009-09-04 00:47:30",1209984,4.08,323.7,2.752,0.161,19.94,109.5386,23.71,24.86,19.58,0,111.1,13.14,24.54,285.7
"2009-09-04 00:48:00",1209985,4.13,329,1.258,0.1,20.04,109.5363,23.7,24.83,19.72,0,111.1,13.14,24.54,291.0
"2009-09-04 00:48:30",1209986,4.106,330.2,0.567,0.064,19.96,109.5306,23.69,24.8,19.9,0,111.1,13.14,24.52,292.2
"2009-09-04 00:49:00",1209987,4.028,330.5,0.615,0.069,19.96,109.5207,23.66,24.79,20.04,0,111.1,13.15,24.50,292.5
"2009-09-04 00:49:30",1209988,3.941,331.1,1.293,0.086,19.98,109.5102,23.64,24.78,20.07,0,111.1,13.15,24.47,293.1
"2009-09-04 00:50:00",1209989,3.645,331.3,1.303,0.225,20.05,109.5119,23.64,24.77,20.06,0,111.1,13.15,24.48,293.3
"2009-09-04 00:50:30",1209990,3.401,334.9,1.779,0.215,20.13,109.5135,23.64,24.75,19.94,0,111.1,13.15,24.48,296.9
"2009-09-04 00:51:00",1209991,2.827,335.7,2.248,0.148,20.2,109.5125,23.64,24.74,19.83,0,111.1,13.15,24.48,297.7
"2009-09-04 00:51:30",1209992,2.76,331.4,3.511,0.254,20.21,109.4975,23.6,24.71,19.67,0,111.1,13.15,24.44,293.4
"2009-09-04 00:52:00",1209993,2.782,333.8,3.995,0.19,20.08,109.4889,23.58,24.7,19.77,0,111.1,13.15,24.42,295.8
"2009-09-04 00:52:30",1209994,2.931,331,4.254,0.099,20.08,109.4902,23.58,24.68,19.92,0,111.1,13.15,24.42,293.0
"2009-09-04 00:53:00",1209995,3.025,327.1,4.641,0.262,20.12,109.4927,23.59,24.66,19.95,0,111.1,13.15,24.43,289.1
"2009-09-04 00:53:30",1209996,3.493,333.4,5.74,0.208,20.19,109.49,23.58,24.64,19.93,0,111.1,13.15,24.42,295.4
"2009-09-04 00:54:00",1209997,3.386,329.5,2.268,0.181,20.16,109.4721,23.54,24.61,19.92,0,111.1,13.15,24.37,291.5
"2009-09-04 00:54:30",1209998,3.675,322.9,4.05,0.168,20.29,109.4648,23.52,24.6,19.96,0,111.1,13.15,24.35,284.9
"2009-09-04 00:55:00",1209999,3.78,322.8,2.028,0.113,20.25,109.4648,23.52,24.59,19.92,0,111.1,13.16,24.35,284.8
"2009-09-04 00:55:30",1210000,3.613,326.9,1.99,0.089,20.28,109.4649,23.52,24.58,20.07,0,111.1,13.15,24.35,288.9
"2009-09-04 00:56:00",1210001,3.556,328.6,0.745,0.129,20.29,109.4513,23.49,24.54,20.17,0,111.1,13.16,24.32,290.6
"2009-09-04 00:56:30",1210002,3.611,328.2,0.625,0.113,20.24,109.4375,23.45,24.51,20.24,0,111.1,13.16,24.28,290.2
"2009-09-04 00:57:00",1210003,3.926,328.1,1.292,0.183,20.36,109.4339,23.44,24.5,20.24,0,111.1,13.16,24.27,290.1
"2009-09-04 00:57:30",1210004,3.401,337.8,7.116,0.597,20.54,109.436,23.45,24.48,20,0,111.1,13.16,24.28,299.8
"2009-09-04 00:58:00",1210005,2.379,343,8.4,0.49,20.55,109.4177,23.4,24.47,19.83,0,111.1,13.16,24.23,305.0
"2009-09-04 00:58:30",1210006,1.945,342,6.123,0.331,20.59,109.4059,23.37,24.45,19.82,0,111.1,13.16,24.20,304.0
"2009-09-04 00:59:00",1210007,1.321,16.42,11.02,0.296,20.54,109.4049,23.37,24.43,19.88,0,111.1,13.16,24.20,338.4
"2009-09-04 00:59:30",1210008,1.616,359.3,12.51,0.295,20.54,109.383,23.31,24.39,19.88,0,111.1,13.16,24.14,321.3
"2009-09-04 01:00:00",1210009,1.696,328,9.71,0.119,20.5,109.3729,23.28,24.37,19.89,0,111.1,13.16,24.12,290.0
"2009-09-04 01:00:30",1210010,1.621,321.9,7.216,0.189,20.42,109.3698,23.28,24.34,19.91,0,111.1,13.16,24.11,283.9
"2009-09-04 01:01:00",1210011,2.803,322.8,2.067,0.408,20.13,109.3487,23.22,24.32,20.17,0,111.1,13.16,24.05,284.8
"2009-09-04 01:01:30",1210012,2.865,322.7,5.093,0.353,20.17,109.3392,23.2,24.29,20.58,0,111.1,13.15,24.03,284.7
"2009-09-04 01:02:00",1210013,2.141,324.3,5.373,0.263,20.3,109.3355,23.19,24.26,20.64,0,111.1,13.16,24.02,286.3
"2009-09-04 01:02:30",1210014,2.481,323.8,3.635,0.186,20.31,109.3144,23.13,24.24,20.57,0,111.1,13.15,23.97,285.8
"2009-09-04 01:03:00",1210015,2.237,324.7,8.29,0.219,20.32,109.3055,23.11,24.22,20.49,0,111.1,13.15,23.94,286.7
"2009-09-04 01:03:30",1210016,2.437,312.6,5.954,0.197,20.27,109.3055,23.11,24.18,20.6,0,111.1,13.15,23.94,274.6
"2009-09-04 01:04:00",1210017,1.946,300.6,6.003,0.26,20.27,109.2981,23.09,24.17,20.78,0,111.1,13.15,23.92,262.6
"2009-09-04 01:04:30",1210018,1.234,304.9,5.902,0.123,20.31,109.276,23.03,24.15,20.9,0,111.1,13.15,23.87,266.9
"2009-09-04 01:05:00",1210019,1.485,309.7,3.867,0.261,20.4,109.2717,23.02,24.11,20.77,0,111.1,13.15,23.86,271.7
"2009-09-04 01:05:30",1210020,1.416,316.3,7.351,0.295,20.53,109.2703,23.02,24.09,20.7,0,111,13.15,23.85,278.3
"2009-09-04 01:06:00",1210021,1.114,337.2,15.24,0.687,20.67,109.2498,22.97,24.07,20.49,0,111,13.16,23.80,299.2
"2009-09-04 01:06:30",1210022,0.827,327.9,12.69,0.178,20.66,109.238,22.94,24.06,20.45,0,111,13.16,23.77,289.9
"2009-09-04 01:07:00",1210023,0.621,328.3,4.746,0.156,20.63,109.238,22.94,24.03,20.47,0,111,13.16,23.77,290.3
"2009-09-04 01:07:30",1210024,0.494,298.8,17.62,0.202,20.63,109.2276,22.91,24.02,20.54,0,111,13.16,23.74,260.8
"2009-09-04 01:08:00",1210025,0.394,254.9,18.38,0.135,20.64,109.2115,22.87,23.98,20.59,0,111,13.16,23.70,216.9
"2009-09-04 01:08:30",1210026,0.361,254.2,21.99,0.113,20.56,109.2077,22.86,23.96,20.64,0,111,13.16,23.69,216.2
"2009-09-04 01:09:00",1210027,0.378,292.7,15.17,0.069,20.43,109.2068,22.86,23.93,20.76,0,111,13.16,23.69,254.7
"2009-09-04 01:09:30",1210028,0.299,283.8,23.07,0.066,20.51,109.1988,22.84,23.91,20.9,0,111,13.16,23.67,245.8
"2009-09-04 01:10:00",1210029,0.264,302.4,7.515,0.092,20.51,109.1802,22.79,23.9,20.93,0,111,13.17,23.62,264.4
"2009-09-04 01:10:30",1210030,0.194,315.9,9.3,0.051,20.55,109.1752,22.78,23.87,20.93,0,111,13.17,23.61,277.9
"2009-09-04 01:11:00",1210031,0.046,311.6,18.49,0.067,20.56,109.177,22.78,23.87,20.92,0,111,13.17,23.61,273.6
"2009-09-04 01:11:30",1210032,0.16,306.7,17.14,0.112,20.57,109.1604,22.74,23.85,20.95,0,111,13.17,23.57,268.7
"2009-09-04 01:12:00",1210033,0.53,304.6,15.05,0.177,20.56,109.1546,22.72,23.82,20.99,0,111,13.17,23.55,266.6
"2009-09-04 01:12:30",1210034,1.017,338,9.74,0.122,20.44,109.1565,22.73,23.8,21.04,0,111,13.17,23.56,300.0
"2009-09-04 01:13:00",1210035,1.199,327.4,6.602,0.205,20.45,109.1602,22.74,23.78,21.23,0,111,13.17,23.57,289.4
"2009-09-04 01:13:30",1210036,1.282,332.4,10.41,0.229,20.54,109.1534,22.72,23.76,21.18,0,111,13.17,23.55,294.4
"2009-09-04 01:14:00",1210037,0.765,331.6,9.99,0.235,20.58,109.1358,22.67,23.74,21.15,0,111,13.17,23.51,293.6
"2009-09-04 01:14:30",1210038,0.288,335.6,32.84,0.149,20.66,109.1308,22.66,23.72,21.1,0,111,13.17,23.49,297.6
"2009-09-04 01:15:00",1210039,0.494,146.2,48.95,0.187,20.78,109.1297,22.66,23.7,21.08,0,111,13.17,23.49,108.2
"2009-09-04 01:15:30",1210040,0.58,98.7,29.54,0.183,20.8,109.1126,22.62,23.67,21.03,0,111,13.17,23.45,60.7
"2009-09-04 01:16:00",1210041,0.11,116.5,69.61,0.258,20.84,109.0992,22.58,23.64,21.04,0,111,13.17,23.41,78.5
"2009-09-04 01:16:30",1210042,0.262,53.76,22.78,0.191,20.75,109.0989,22.58,23.63,21.06,0,111,13.18,23.41,15.8
"2009-09-04 01:17:00",1210043,0.379,64.92,11.18,0.094,20.74,109.0863,22.55,23.6,21.14,0,111,13.18,23.38,26.9
"2009-09-04 01:17:30",1210044,0.784,64.91,9.23,0.199,20.81,109.0721,22.51,23.58,21.2,0,111,13.18,23.34,26.9
"2009-09-04 01:18:00",1210045,0.784,97.4,21.7,0.195,20.91,109.0719,22.51,23.56,21.2,0,111,13.18,23.34,59.4
"2009-09-04 01:18:30",1210046,0.733,123.7,8.72,0.185,20.89,109.063,22.49,23.55,21.23,0,111,13.17,23.32,85.7
"2009-09-04 01:19:00",1210047,0.917,118.1,5.485,0.087,21,109.0424,22.44,23.52,21.22,0,111,13.17,23.27,80.1
"2009-09-04 01:19:30",1210048,0.984,129.9,4.092,0.101,21.02,109.0388,22.43,23.5,21.11,0,111,13.17,23.26,91.9
"2009-09-04 01:20:00",1210049,0.906,130.4,2.902,0.058,21,109.0337,22.41,23.48,21.04,0,111,13.17,23.24,92.4
"2009-09-04 01:20:30",1210050,0.935,126.8,5.532,0.094,21.03,109.0107,22.35,23.44,21.1,0,111,13.17,23.18,88.8
"2009-09-04 01:21:00",1210051,1.047,111.7,9.19,0.169,21.07,109.0051,22.34,23.43,21.12,0,111,13.17,23.17,73.7
"2009-09-04 01:21:30",1210052,1.09,97.8,5.043,0.294,21.06,109.0051,22.34,23.41,21.2,0,111,13.17,23.17,59.8
"2009-09-04 01:22:00",1210053,1.03,127.7,6.478,0.273,21.04,108.9955,22.31,23.38,21.26,0,111,13.17,23.14,89.7
"2009-09-04 01:22:30",1210054,1.511,127.7,4.064,0.12,21,108.9761,22.26,23.35,21.28,0,111,13.17,23.09,89.7
"2009-09-04 01:23:00",1210055,1.355,122.3,3.697,0.124,20.99,108.9713,22.25,23.33,21.38,0,111,13.17,23.08,84.3
"2009-09-04 01:23:30",1210056,1.133,113.2,9.5,0.174,20.98,108.9713,22.25,23.32,21.46,0,111,13.17,23.08,75.2
"2009-09-04 01:24:00",1210057,0.68,103.6,9.55,0.13,20.93,108.964,22.23,23.29,21.53,0,111,13.18,23.06,65.6
"2009-09-04 01:24:30",1210058,0.558,99.9,15.21,0.168,20.9,108.9446,22.18,23.29,21.58,0,111,13.18,23.01,61.9
"2009-09-04 01:25:00",1210059,0.271,93.9,24.79,0.184,20.91,108.9376,22.17,23.27,21.64,0,111,13.18,23.00,55.9
"2009-09-04 01:25:30",1210060,0.335,76.95,16.22,0.194,20.91,108.9376,22.17,23.25,21.68,0,111,13.18,23.00,38.9
"2009-09-04 01:26:00",1210061,0.811,125.2,17.78,0.184,20.92,108.9401,22.17,23.23,21.66,0,111,13.18,23.00,87.2
"2009-09-04 01:26:30",1210062,0.549,81.1,24.94,0.476,20.92,108.9339,22.16,23.21,21.68,0,111,13.18,22.99,43.1
"2009-09-04 01:27:00",1210063,1.268,74.86,14.07,0.261,21.01,108.9215,22.12,23.2,21.71,0,110.9,13.18,22.95,36.9
"2009-09-04 01:27:30",1210064,1.027,112.2,15.37,0.288,20.98,108.9137,22.1,23.19,21.75,0,111,13.18,22.93,74.2
"2009-09-04 01:28:00",1210065,1.097,125.3,13.01,0.317,20.96,108.9207,22.12,23.18,21.79,0,110.9,13.19,22.95,87.3
"2009-09-04 01:28:30",1210066,1.709,109.8,5.213,0.227,21.07,108.9239,22.13,23.15,21.77,0,111,13.19,22.96,71.8
"2009-09-04 01:29:00",1210067,1.983,107.7,7.265,0.305,21.06,108.9103,22.1,23.14,21.81,0,110.9,13.19,22.92,69.7
"2009-09-04 01:29:30",1210068,1.588,121.4,9.51,0.353,21.01,108.903,22.08,23.11,21.82,0,111,13.19,22.91,83.4
"2009-09-04 01:30:00",1210069,1.984,125,7.166,0.147,20.99,108.8977,22.06,23.12,21.86,0,111,13.19,22.89,87.0
"2009-09-04 01:30:30",1210070,1.738,124.5,10.66,0.17,20.93,108.8977,22.06,23.09,21.89,0,111,13.19,22.89,86.5
"2009-09-04 01:31:00",1210071,1.596,130.5,6.844,0.155,20.87,108.8992,22.07,23.09,21.93,0,110.9,13.19,22.90,92.5
"2009-09-04 01:31:30",1210072,1.998,111.9,6.857,0.161,20.96,108.8983,22.06,23.08,21.92,0,110.9,13.19,22.89,73.9
"2009-09-04 01:32:00",1210073,1.486,108.5,7.372,0.137,20.91,108.8949,22.06,23.08,21.98,0,110.9,13.19,22.89,70.5
"2009-09-04 01:32:30",1210074,1.289,111.5,5.873,0.128,20.91,108.8909,22.05,23.06,22,0,110.9,13.19,22.87,73.5
"2009-09-04 01:33:00",1210075,1.206,112.1,13.81,0.191,20.88,108.8804,22.02,23.04,22.03,0,110.9,13.19,22.85,74.1
"2009-09-04 01:33:30",1210076,1.731,104.4,4.991,0.292,20.93,108.874,22,23.03,22.05,0,110.9,13.19,22.83,66.4
"2009-09-04 01:34:00",1210077,1.458,92.5,14.39,0.236,20.89,108.8731,22,23.03,22.05,0,110.9,13.19,22.83,54.5
"2009-09-04 01:34:30",1210078,1.099,94.9,8.34,0.294,20.88,108.8731,22,23.01,22.09,0,110.9,13.2,22.83,56.9
"2009-09-04 01:35:00",1210079,1.025,91.3,6.649,0.275,20.94,108.8731,22,23.01,22.09,0,110.9,13.2,22.83,53.3
"2009-09-04 01:35:30",1210080,1.357,90.5,6.09,0.12,20.92,108.8731,22,23.01,22.09,0,110.9,13.19,22.83,52.5
"2009-09-04 01:36:00",1210081,1.347,97.6,4.056,0.112,20.91,108.8731,22,23,22.1,0,110.9,13.19,22.83,59.6
"2009-09-04 01:36:30",1210082,1.064,92.9,8.9,0.168,20.88,108.8723,22,22.99,22.13,0,110.9,13.19,22.83,54.9
"2009-09-04 01:37:00",1210083,0.745,79.11,7.425,0.054,20.83,108.8636,21.98,22.99,22.15,0,110.9,13.19,22.80,41.1
"2009-09-04 01:37:30",1210084,0.718,69.48,5.703,0.155,20.81,108.8515,21.94,22.99,22.18,0,110.9,13.19,22.77,31.5
"2009-09-04 01:38:00",1210085,0.85,51.63,8.41,0.188,20.81,108.845,21.93,22.96,22.21,0,110.9,13.19,22.76,13.6
"2009-09-04 01:38:30",1210086,0.876,69.06,7.551,0.121,20.87,108.8394,21.91,22.96,22.23,0,110.9,13.19,22.74,31.1
"2009-09-04 01:39:00",1210087,1.166,80.6,9.36,0.186,20.91,108.8394,21.91,22.96,22.22,0,110.9,13.19,22.74,42.6
"2009-09-04 01:39:30",1210088,1.891,93.1,8.54,0.536,21.02,108.8394,21.91,22.95,22.18,0,110.9,13.19,22.74,55.1
"2009-09-04 01:40:00",1210089,2.156,95.4,4.149,0.181,21.06,108.8394,21.91,22.94,22.12,0,110.9,13.19,22.74,57.4
"2009-09-04 01:40:30",1210090,2.013,95,4.449,0.257,21.05,108.8394,21.91,22.94,22.13,0,110.9,13.19,22.74,57.0
"2009-09-04 01:41:00",1210091,1.908,103.8,7.376,0.132,21.04,108.835,21.9,22.94,22.14,0,110.9,13.2,22.73,65.8
"2009-09-04 01:41:30",1210092,1.786,98.9,6.08,0.153,21.03,108.8212,21.87,22.94,22.13,0,110.9,13.2,22.70,60.9
"2009-09-04 01:42:00",1210093,1.698,97,3.657,0.152,21.02,108.8151,21.85,22.92,22.14,0,110.9,13.2,22.68,59.0
"2009-09-04 01:42:30",1210094,1.894,95.1,3.796,0.12,21.03,108.8089,21.84,22.92,22.14,0,110.9,13.2,22.66,57.1
"2009-09-04 01:43:00",1210095,1.819,99,1.895,0.098,21.01,108.809,21.84,22.9,22.15,0,110.9,13.2,22.66,61.0
"2009-09-04 01:43:30",1210096,1.988,101.1,1.433,0.096,20.96,108.8084,21.83,22.9,22.16,0,110.9,13.2,22.66,63.1
"2009-09-04 01:44:00",1210097,1.848,99.7,5.428,0.118,20.96,108.8078,21.83,22.89,22.17,0,110.9,13.2,22.66,61.7
"2009-09-04 01:44:30",1210098,1.956,98.1,2.71,0.107,20.96,108.8093,21.84,22.89,22.16,0,110.9,13.2,22.66,60.1
"2009-09-04 01:45:00",1210099,1.816,101.4,4.212,0.189,20.96,108.8096,21.84,22.9,22.19,0,110.9,13.2,22.67,63.4
"2009-09-04 01:45:30",1210100,1.64,97.2,5.765,0.104,20.97,108.8115,21.84,22.89,22.18,0,110.9,13.2,22.67,59.2
"2009-09-04 01:46:00",1210101,1.33,105.1,5.53,0.109,20.99,108.8161,21.85,22.9,22.2,0,110.9,13.2,22.68,67.1
"2009-09-04 01:46:30",1210102,1.239,102,3.936,0.096,20.94,108.8176,21.86,22.9,22.21,0,110.9,13.2,22.69,64.0
"2009-09-04 01:47:00",1210103,1.261,95.9,7.072,0.094,20.93,108.8231,21.87,22.88,22.2,0,110.9,13.2,22.70,57.9
"2009-09-04 01:47:30",1210104,1.544,106.7,3.118,0.148,20.94,108.8277,21.88,22.9,22.21,0,110.9,13.2,22.71,68.7